Wetterdaten: Mittwoch, 25.11.2015
Datum Zeit Temp. A. Feuchte A. Luftdruck Regen Wind Richtung Richtung Sonnenschein ET UV Solar Taupunkt Windchill Windben Empfang
25.11.2015 00:00 -3,3 C 92 % 1017,2 hPa 0,0 l/m 1,9 km/h (1 Bft) SO 136 0 min 0,000 mm 0,0 UV-I 0 W/m -4,4 C -3,3 C 3,2 km/h (1 Bft) 96,40 %
25.11.2015 00:05 -3,4 C 93 % 1017,1 hPa 0,0 l/m 1,9 km/h (1 Bft) SO 136 0 min 0,000 mm 0,0 UV-I 0 W/m -4,4 C -3,4 C 3,2 km/h (1 Bft) 100,00 %
25.11.2015 00:10 -3,6 C 92 % 1016,9 hPa 0,0 l/m 2,7 km/h (1 Bft) SO 136 0 min 0,000 mm 0,0 UV-I 0 W/m -4,7 C -3,6 C 4,8 km/h (1 Bft) 98,29 %
25.11.2015 00:15 -3,9 C 92 % 1016,9 hPa 0,0 l/m 1,1 km/h (1 Bft) SO 136 0 min 0,000 mm 0,0 UV-I 0 W/m -5,0 C -3,9 C 3,2 km/h (1 Bft) 100,00 %
25.11.2015 00:20 -4,1 C 93 % 1016,8 hPa 0,0 l/m 0,5 km/h (0 Bft) SO 136 0 min 0,000 mm 0,0 UV-I 0 W/m -5,1 C -4,1 C 1,6 km/h (1 Bft) 98,35 %
25.11.2015 00:25 -4,2 C 93 % 1016,7 hPa 0,0 l/m 1,1 km/h (1 Bft) SO 136 0 min 0,000 mm 0,0 UV-I 0 W/m -5,2 C -4,2 C 4,8 km/h (1 Bft) 98,33 %
25.11.2015 00:30 -4,1 C 93 % 1016,7 hPa 0,0 l/m 3,4 km/h (1 Bft) SO 136 0 min 0,000 mm 0,0 UV-I 0 W/m -5,1 C -4,1 C 4,8 km/h (1 Bft) 98,21 %
25.11.2015 00:35 -4,1 C 93 % 1016,6 hPa 0,0 l/m 2,8 km/h (1 Bft) SO 136 0 min 0,000 mm 0,0 UV-I 0 W/m -5,1 C -4,1 C 4,8 km/h (1 Bft) 100,00 %
25.11.2015 00:40 -3,9 C 93 % 1016,5 hPa 0,0 l/m 1,8 km/h (1 Bft) SO 136 0 min 0,000 mm 0,0 UV-I 0 W/m -4,9 C -3,9 C 3,2 km/h (1 Bft) 98,04 %
25.11.2015 00:45 -4,0 C 93 % 1016,3 hPa 0,0 l/m 0,0 km/h (0 Bft) SO 136 0 min 0,000 mm 0,0 UV-I 0 W/m -5,0 C -4,0 C 1,6 km/h (1 Bft) 100,00 %
25.11.2015 00:50 -4,1 C 93 % 1016,3 hPa 0,0 l/m 0,0 km/h (0 Bft) SO 136 0 min 0,000 mm 0,0 UV-I 0 W/m -5,1 C -4,1 C 0,0 km/h (0 Bft) 98,31 %
25.11.2015 00:55 -4,1 C 93 % 1016,2 hPa 0,0 l/m 0,0 km/h (0 Bft) SO 136 0 min 0,000 mm 0,0 UV-I 0 W/m -5,1 C -4,1 C 0,0 km/h (0 Bft) 98,37 %
25.11.2015 01:00 -4,2 C 93 % 1016,1 hPa 0,0 l/m 0,0 km/h (0 Bft) SO 136 0 min 0,000 mm 0,0 UV-I 0 W/m -5,2 C -4,2 C 0,0 km/h (0 Bft) 98,17 %
25.11.2015 01:05 -4,4 C 93 % 1016,1 hPa 0,0 l/m 0,0 km/h (0 Bft) SO 136 0 min 0,000 mm 0,0 UV-I 0 W/m -5,4 C -4,4 C 0,0 km/h (0 Bft) 100,00 %
25.11.2015 01:10 -4,4 C 93 % 1016,0 hPa 0,0 l/m 0,2 km/h (0 Bft) SO 136 0 min 0,000 mm 0,0 UV-I 0 W/m -5,4 C -4,4 C 1,6 km/h (1 Bft) 98,29 %
25.11.2015 01:15 -4,6 C 94 % 1016,0 hPa 0,0 l/m 0,8 km/h (0 Bft) SO 136 0 min 0,000 mm 0,0 UV-I 0 W/m -5,4 C -4,6 C 3,2 km/h (1 Bft) 100,00 %
25.11.2015 01:20 -4,5 C 94 % 1015,9 hPa 0,0 l/m 0,0 km/h (0 Bft) SO 136 0 min 0,000 mm 0,0 UV-I 0 W/m -5,3 C -4,5 C 0,0 km/h (0 Bft) 98,20 %
25.11.2015 01:25 -4,5 C 94 % 1015,8 hPa 0,0 l/m 0,1 km/h (0 Bft) SO 136 0 min 0,000 mm 0,0 UV-I 0 W/m -5,3 C -4,5 C 1,6 km/h (1 Bft) 99,19 %
25.11.2015 01:30 -4,4 C 94 % 1015,7 hPa 0,0 l/m 1,7 km/h (1 Bft) SO 136 0 min 0,000 mm 0,0 UV-I 0 W/m -5,2 C -4,4 C 3,2 km/h (1 Bft) 99,12 %
25.11.2015 01:35 -4,3 C 93 % 1015,6 hPa 0,0 l/m 1,7 km/h (1 Bft) SO 136 0 min 0,000 mm 0,0 UV-I 0 W/m -5,3 C -4,3 C 3,2 km/h (1 Bft) 99,12 %
25.11.2015 01:40 -4,4 C 94 % 1015,5 hPa 0,0 l/m 1,0 km/h (0 Bft) SO 136 0 min 0,000 mm 0,0 UV-I 0 W/m -5,2 C -4,4 C 1,6 km/h (1 Bft) 95,87 %
25.11.2015 01:45 -4,7 C 93 % 1015,4 hPa 0,0 l/m 0,3 km/h (0 Bft) SO 136 0 min 0,000 mm 0,0 UV-I 0 W/m -5,7 C -4,7 C 1,6 km/h (1 Bft) 96,43 %
25.11.2015 01:50 -4,8 C 93 % 1015,4 hPa 0,0 l/m 1,2 km/h (1 Bft) SO 136 0 min 0,000 mm 0,0 UV-I 0 W/m -5,8 C -4,8 C 3,2 km/h (1 Bft) 96,67 %
25.11.2015 01:55 -4,9 C 94 % 1015,4 hPa 0,0 l/m 2,0 km/h (1 Bft) SO 136 0 min 0,000 mm 0,0 UV-I 0 W/m -5,7 C -4,9 C 3,2 km/h (1 Bft) 97,52 %
25.11.2015 02:00 -4,9 C 94 % 1015,4 hPa 0,0 l/m 0,1 km/h (0 Bft) SO 136 0 min 0,000 mm 0,0 UV-I 0 W/m -5,7 C -4,9 C 1,6 km/h (1 Bft) 97,32 %
25.11.2015 02:05 -4,9 C 94 % 1015,4 hPa 0,0 l/m 0,2 km/h (0 Bft) SO 136 0 min 0,000 mm 0,0 UV-I 0 W/m -5,7 C -4,9 C 3,2 km/h (1 Bft) 96,03 %
25.11.2015 02:10 -4,9 C 94 % 1015,4 hPa 0,0 l/m 1,5 km/h (1 Bft) S 179 0 min 0,000 mm 0,0 UV-I 0 W/m -5,7 C -4,9 C 3,2 km/h (1 Bft) 96,33 %
25.11.2015 02:15 -4,8 C 94 % 1015,4 hPa 0,0 l/m 0,1 km/h (0 Bft) S 179 0 min 0,000 mm 0,0 UV-I 0 W/m -5,6 C -4,8 C 1,6 km/h (1 Bft) 98,37 %
25.11.2015 02:20 -4,8 C 94 % 1015,3 hPa 0,0 l/m 0,1 km/h (0 Bft) S 179 0 min 0,000 mm 0,0 UV-I 0 W/m -5,6 C -4,8 C 1,6 km/h (1 Bft) 99,15 %
25.11.2015 02:25 -4,8 C 94 % 1015,4 hPa 0,0 l/m 1,9 km/h (1 Bft) SW 217 0 min 0,000 mm 0,0 UV-I 0 W/m -5,6 C -4,8 C 3,2 km/h (1 Bft) 97,17 %
25.11.2015 02:30 -4,9 C 94 % 1015,1 hPa 0,0 l/m 0,2 km/h (0 Bft) SW 217 0 min 0,000 mm 0,0 UV-I 0 W/m -5,7 C -4,9 C 1,6 km/h (1 Bft) 99,19 %
25.11.2015 02:35 -4,9 C 94 % 1015,1 hPa 0,0 l/m 0,0 km/h (0 Bft) SW 217 0 min 0,000 mm 0,0 UV-I 0 W/m -5,7 C -4,9 C 0,0 km/h (0 Bft) 100,00 %
25.11.2015 02:40 -4,9 C 94 % 1015,1 hPa 0,0 l/m 0,0 km/h (0 Bft) SW 217 0 min 0,000 mm 0,0 UV-I 0 W/m -5,7 C -4,9 C 0,0 km/h (0 Bft) 99,15 %
25.11.2015 02:45 -4,9 C 94 % 1014,9 hPa 0,0 l/m 0,1 km/h (0 Bft) SW 217 0 min 0,000 mm 0,0 UV-I 0 W/m -5,7 C -4,9 C 1,6 km/h (1 Bft) 99,19 %
25.11.2015 02:50 -4,8 C 95 % 1014,6 hPa 0,0 l/m 3,0 km/h (1 Bft) SO 128 0 min 0,000 mm 0,0 UV-I 0 W/m -5,5 C -4,8 C 6,4 km/h (2 Bft) 100,00 %
25.11.2015 02:55 -5,0 C 94 % 1014,5 hPa 0,0 l/m 3,3 km/h (1 Bft) O-SO 119 0 min 0,000 mm 0,0 UV-I 0 W/m -5,8 C -5,0 C 4,8 km/h (1 Bft) 100,00 %
25.11.2015 03:00 -4,9 C 94 % 1014,5 hPa 0,0 l/m 0,9 km/h (0 Bft) W-NW 288 0 min 0,000 mm 0,0 UV-I 0 W/m -5,7 C -4,9 C 3,2 km/h (1 Bft) 98,29 %
25.11.2015 03:05 -5,1 C 94 % 1014,4 hPa 0,0 l/m 0,1 km/h (0 Bft) W-NW 288 0 min 0,000 mm 0,0 UV-I 0 W/m -5,9 C -5,1 C 1,6 km/h (1 Bft) 100,00 %
25.11.2015 03:10 -5,1 C 94 % 1014,5 hPa 0,0 l/m 0,6 km/h (0 Bft) W-NW 288 0 min 0,000 mm 0,0 UV-I 0 W/m -5,9 C -5,1 C 3,2 km/h (1 Bft) 100,00 %
25.11.2015 03:15 -5,1 C 94 % 1014,3 hPa 0,0 l/m 0,5 km/h (0 Bft) W-NW 288 0 min 0,000 mm 0,0 UV-I 0 W/m -5,9 C -5,1 C 1,6 km/h (1 Bft) 99,17 %
25.11.2015 03:20 -5,1 C 94 % 1014,2 hPa 0,0 l/m 0,0 km/h (0 Bft) W-NW 288 0 min 0,000 mm 0,0 UV-I 0 W/m -5,9 C -5,1 C 1,6 km/h (1 Bft) 99,13 %
25.11.2015 03:25 -5,0 C 95 % 1014,1 hPa 0,0 l/m 0,0 km/h (0 Bft) W-NW 288 0 min 0,000 mm 0,0 UV-I 0 W/m -5,7 C -5,0 C 0,0 km/h (0 Bft) 97,56 %
25.11.2015 03:30 -5,0 C 94 % 1014,1 hPa 0,0 l/m 0,0 km/h (0 Bft) W-NW 288 0 min 0,000 mm 0,0 UV-I 0 W/m -5,8 C -5,0 C 0,0 km/h (0 Bft) 98,21 %
25.11.2015 03:35 -5,1 C 94 % 1014,0 hPa 0,0 l/m 0,1 km/h (0 Bft) W-NW 288 0 min 0,000 mm 0,0 UV-I 0 W/m -5,9 C -5,1 C 1,6 km/h (1 Bft) 98,21 %
25.11.2015 03:40 -5,2 C 94 % 1013,9 hPa 0,0 l/m 0,1 km/h (0 Bft) W-NW 288 0 min 0,000 mm 0,0 UV-I 0 W/m -6,0 C -5,2 C 1,6 km/h (1 Bft) 100,00 %
25.11.2015 03:45 -5,2 C 94 % 1013,9 hPa 0,0 l/m 1,0 km/h (0 Bft) W-NW 288 0 min 0,000 mm 0,0 UV-I 0 W/m -6,0 C -5,2 C 3,2 km/h (1 Bft) 100,00 %
25.11.2015 03:50 -5,1 C 95 % 1013,7 hPa 0,0 l/m 1,9 km/h (1 Bft) W-NW 288 0 min 0,000 mm 0,0 UV-I 0 W/m -5,8 C -5,1 C 3,2 km/h (1 Bft) 94,64 %
25.11.2015 03:55 -5,0 C 95 % 1013,7 hPa 0,0 l/m 0,9 km/h (0 Bft) W-SW 242 0 min 0,000 mm 0,0 UV-I 0 W/m -5,7 C -5,0 C 3,2 km/h (1 Bft) 97,37 %
25.11.2015 04:00 -5,1 C 94 % 1013,8 hPa 0,0 l/m 0,7 km/h (0 Bft) W-SW 242 0 min 0,000 mm 0,0 UV-I 0 W/m -5,9 C -5,1 C 1,6 km/h (1 Bft) 96,69 %
25.11.2015 04:05 -5,1 C 94 % 1013,8 hPa 0,0 l/m 1,0 km/h (0 Bft) W-SW 242 0 min 0,000 mm 0,0 UV-I 0 W/m -5,9 C -5,1 C 3,2 km/h (1 Bft) 97,53 %
25.11.2015 04:10 -5,2 C 94 % 1013,7 hPa 0,0 l/m 1,7 km/h (1 Bft) W-SW 242 0 min 0,000 mm 0,0 UV-I 0 W/m -6,0 C -5,2 C 3,2 km/h (1 Bft) 95,24 %
25.11.2015 04:15 -5,3 C 94 % 1013,7 hPa 0,0 l/m 1,5 km/h (1 Bft) W-SW 242 0 min 0,000 mm 0,0 UV-I 0 W/m -6,1 C -5,3 C 3,2 km/h (1 Bft) 96,85 %
25.11.2015 04:20 -5,2 C 94 % 1013,7 hPa 0,0 l/m 1,6 km/h (1 Bft) W-SW 242 0 min 0,000 mm 0,0 UV-I 0 W/m -6,0 C -5,2 C 3,2 km/h (1 Bft) 96,40 %
25.11.2015 04:25 -5,3 C 94 % 1013,5 hPa 0,0 l/m 0,2 km/h (0 Bft) W-SW 242 0 min 0,000 mm 0,0 UV-I 0 W/m -6,1 C -5,3 C 1,6 km/h (1 Bft) 98,26 %
25.11.2015 04:30 -5,2 C 94 % 1013,5 hPa 0,0 l/m 0,0 km/h (0 Bft) W-SW 242 0 min 0,000 mm 0,0 UV-I 0 W/m -6,0 C -5,2 C 1,6 km/h (1 Bft) 96,77 %
25.11.2015 04:35 -5,2 C 94 % 1013,5 hPa 0,0 l/m 0,1 km/h (0 Bft) W-SW 242 0 min 0,000 mm 0,0 UV-I 0 W/m -6,0 C -5,2 C 1,6 km/h (1 Bft) 99,07 %
25.11.2015 04:40 -5,1 C 95 % 1013,4 hPa 0,0 l/m 0,0 km/h (0 Bft) W-SW 242 0 min 0,000 mm 0,0 UV-I 0 W/m -5,8 C -5,1 C 0,0 km/h (0 Bft) 100,00 %
25.11.2015 04:45 -4,8 C 95 % 1013,4 hPa 0,0 l/m 1,6 km/h (1 Bft) N 5 0 min 0,000 mm 0,0 UV-I 0 W/m -5,5 C -4,8 C 3,2 km/h (1 Bft) 100,00 %
25.11.2015 04:50 -4,6 C 95 % 1013,3 hPa 0,0 l/m 4,0 km/h (1 Bft) NO 51 0 min 0,000 mm 0,0 UV-I 0 W/m -5,3 C -4,6 C 6,4 km/h (2 Bft) 97,32 %
25.11.2015 04:55 -4,4 C 96 % 1013,2 hPa 0,0 l/m 3,1 km/h (1 Bft) O-NO 58 0 min 0,000 mm 0,0 UV-I 0 W/m -4,9 C -4,4 C 4,8 km/h (1 Bft) 99,13 %
25.11.2015 05:00 -4,3 C 95 % 1013,2 hPa 0,0 l/m 3,4 km/h (1 Bft) NO 55 0 min 0,000 mm 0,0 UV-I 0 W/m -5,0 C -4,3 C 6,4 km/h (2 Bft) 99,19 %
25.11.2015 05:05 -4,3 C 95 % 1013,2 hPa 0,0 l/m 3,3 km/h (1 Bft) NO 54 0 min 0,000 mm 0,0 UV-I 0 W/m -5,0 C -4,3 C 4,8 km/h (1 Bft) 100,00 %
25.11.2015 05:10 -4,6 C 93 % 1013,1 hPa 0,0 l/m 1,5 km/h (1 Bft) S 182 0 min 0,000 mm 0,0 UV-I 0 W/m -5,6 C -4,6 C 4,8 km/h (1 Bft) 98,17 %
25.11.2015 05:15 -5,2 C 93 % 1013,1 hPa 0,0 l/m 3,4 km/h (1 Bft) S-SW 203 0 min 0,000 mm 0,0 UV-I 0 W/m -6,1 C -5,2 C 6,4 km/h (2 Bft) 99,15 %
25.11.2015 05:20 -5,3 C 94 % 1013,1 hPa 0,0 l/m 4,0 km/h (1 Bft) S-SW 200 0 min 0,000 mm 0,0 UV-I 0 W/m -6,1 C -5,3 C 6,4 km/h (2 Bft) 100,00 %
25.11.2015 05:25 -5,2 C 94 % 1013,0 hPa 0,0 l/m 1,6 km/h (1 Bft) S-SW 196 0 min 0,000 mm 0,0 UV-I 0 W/m -6,0 C -5,2 C 3,2 km/h (1 Bft) 96,49 %
25.11.2015 05:30 -5,0 C 95 % 1012,8 hPa 0,0 l/m 2,2 km/h (1 Bft) SO 140 0 min 0,000 mm 0,0 UV-I 0 W/m -5,7 C -5,0 C 4,8 km/h (1 Bft) 99,17 %
25.11.2015 05:35 -4,8 C 95 % 1012,7 hPa 0,0 l/m 3,9 km/h (1 Bft) O-SO 102 0 min 0,000 mm 0,0 UV-I 0 W/m -5,5 C -4,8 C 6,4 km/h (2 Bft) 99,08 %
25.11.2015 05:40 -4,7 C 94 % 1012,8 hPa 0,0 l/m 1,9 km/h (1 Bft) SW 230 0 min 0,000 mm 0,0 UV-I 0 W/m -5,5 C -4,7 C 4,8 km/h (1 Bft) 99,17 %
25.11.2015 05:45 -4,8 C 94 % 1012,9 hPa 0,0 l/m 2,0 km/h (1 Bft) SW 230 0 min 0,000 mm 0,0 UV-I 0 W/m -5,6 C -4,8 C 3,2 km/h (1 Bft) 98,35 %
25.11.2015 05:50 -4,6 C 94 % 1012,8 hPa 0,0 l/m 1,7 km/h (1 Bft) S-SO 156 0 min 0,000 mm 0,0 UV-I 0 W/m -5,4 C -4,6 C 3,2 km/h (1 Bft) 100,00 %
25.11.2015 05:55 -4,3 C 95 % 1012,7 hPa 0,0 l/m 3,5 km/h (1 Bft) O-SO 123 0 min 0,000 mm 0,0 UV-I 0 W/m -5,0 C -4,3 C 9,7 km/h (2 Bft) 97,37 %
25.11.2015 06:00 -4,0 C 95 % 1012,7 hPa 0,0 l/m 1,7 km/h (1 Bft) SO 142 0 min 0,000 mm 0,0 UV-I 0 W/m -4,7 C -4,0 C 4,8 km/h (1 Bft) 97,52 %
25.11.2015 06:05 -3,8 C 94 % 1012,5 hPa 0,0 l/m 0,8 km/h (0 Bft) S-SO 155 0 min 0,000 mm 0,0 UV-I 0 W/m -4,6 C -3,8 C 3,2 km/h (1 Bft) 97,56 %
25.11.2015 06:10 -3,7 C 94 % 1012,5 hPa 0,0 l/m 2,9 km/h (1 Bft) S-SO 153 0 min 0,000 mm 0,0 UV-I 0 W/m -4,5 C -3,7 C 8,0 km/h (2 Bft) 96,12 %
25.11.2015 06:15 -3,7 C 94 % 1012,5 hPa 0,0 l/m 3,4 km/h (1 Bft) O-SO 123 0 min 0,000 mm 0,0 UV-I 0 W/m -4,5 C -3,7 C 8,0 km/h (2 Bft) 97,64 %
25.11.2015 06:20 -3,6 C 94 % 1012,5 hPa 0,0 l/m 6,4 km/h (2 Bft) O-SO 107 0 min 0,000 mm 0,0 UV-I 0 W/m -4,4 C -3,5 C 9,7 km/h (2 Bft) 98,21 %
25.11.2015 06:25 -3,5 C 93 % 1012,5 hPa 0,0 l/m 4,9 km/h (1 Bft) O-SO 102 0 min 0,000 mm 0,0 UV-I 0 W/m -4,5 C -3,5 C 9,7 km/h (2 Bft) 95,73 %
25.11.2015 06:30 -3,5 C 93 % 1012,6 hPa 0,0 l/m 3,1 km/h (1 Bft) O-SO 102 0 min 0,000 mm 0,0 UV-I 0 W/m -4,5 C -3,5 C 6,4 km/h (2 Bft) 97,46 %
25.11.2015 06:35 -3,4 C 93 % 1012,6 hPa 0,0 l/m 0,7 km/h (0 Bft) O 82 0 min 0,000 mm 0,0 UV-I 0 W/m -4,4 C -3,4 C 3,2 km/h (1 Bft) 98,25 %
25.11.2015 06:40 -3,6 C 93 % 1012,5 hPa 0,0 l/m 0,0 km/h (0 Bft) O 82 0 min 0,000 mm 0,0 UV-I 0 W/m -4,6 C -3,6 C 0,0 km/h (0 Bft) 97,46 %
25.11.2015 06:45 -3,6 C 93 % 1012,5 hPa 0,0 l/m 0,1 km/h (0 Bft) O 82 0 min 0,000 mm 0,0 UV-I 0 W/m -4,6 C -3,6 C 1,6 km/h (1 Bft) 99,15 %
25.11.2015 06:50 -3,6 C 93 % 1012,5 hPa 0,0 l/m 0,4 km/h (0 Bft) O 82 0 min 0,000 mm 0,0 UV-I 0 W/m -4,6 C -3,6 C 1,6 km/h (1 Bft) 100,00 %
25.11.2015 06:55 -3,6 C 94 % 1012,4 hPa 0,0 l/m 0,8 km/h (0 Bft) N-NW 336 0 min 0,000 mm 0,0 UV-I 0 W/m -4,4 C -3,6 C 3,2 km/h (1 Bft) 99,17 %
25.11.2015 07:00 -3,7 C 94 % 1012,2 hPa 0,0 l/m 1,1 km/h (1 Bft) N 5 0 min 0,000 mm 0,0 UV-I 0 W/m -4,5 C -3,7 C 3,2 km/h (1 Bft) 100,00 %
25.11.2015 07:05 -3,7 C 94 % 1012,2 hPa 0,0 l/m 1,4 km/h (1 Bft) N-NO 20 0 min 0,000 mm 0,0 UV-I 0 W/m -4,5 C -3,7 C 3,2 km/h (1 Bft) 99,15 %
25.11.2015 07:10 -3,7 C 93 % 1012,3 hPa 0,0 l/m 1,8 km/h (1 Bft) N-NO 28 0 min 0,000 mm 0,0 UV-I 0 W/m -4,7 C -3,7 C 3,2 km/h (1 Bft) 98,17 %
25.11.2015 07:15 -3,6 C 93 % 1012,4 hPa 0,0 l/m 1,1 km/h (1 Bft) NW 311 0 min 0,000 mm 0,0 UV-I 0 W/m -4,6 C -3,6 C 3,2 km/h (1 Bft) 98,29 %
25.11.2015 07:20 -3,7 C 94 % 1012,4 hPa 0,0 l/m 0,1 km/h (0 Bft) NW 325 0 min 0,000 mm 0,0 UV-I 0 W/m -4,5 C -3,7 C 1,6 km/h (1 Bft) 99,17 %
25.11.2015 07:25 -3,6 C 94 % 1012,4 hPa 0,0 l/m 1,5 km/h (1 Bft) N 9 0 min 0,000 mm 0,0 UV-I 6 W/m -4,4 C -3,6 C 3,2 km/h (1 Bft) 98,31 %
25.11.2015 07:30 -3,6 C 94 % 1012,2 hPa 0,0 l/m 2,2 km/h (1 Bft) NO 46 0 min 0,000 mm 0,0 UV-I 6 W/m -4,4 C -3,6 C 4,8 km/h (1 Bft) 98,33 %
25.11.2015 07:35 -3,6 C 94 % 1012,2 hPa 0,0 l/m 3,8 km/h (1 Bft) NO 52 0 min 0,000 mm 0,0 UV-I 8 W/m -4,4 C -3,6 C 6,4 km/h (2 Bft) 99,15 %
25.11.2015 07:40 -3,6 C 94 % 1012,0 hPa 0,0 l/m 4,7 km/h (1 Bft) NO 34 0 min 0,000 mm 0,0 UV-I 12 W/m -4,4 C -3,6 C 6,4 km/h (2 Bft) 99,15 %
25.11.2015 07:45 -3,4 C 94 % 1011,9 hPa 0,0 l/m 5,3 km/h (1 Bft) N-NO 20 0 min 0,000 mm 0,0 UV-I 16 W/m -4,2 C -3,4 C 8,0 km/h (2 Bft) 100,00 %
25.11.2015 07:50 -3,4 C 94 % 1012,2 hPa 0,0 l/m 2,4 km/h (1 Bft) W-NW 289 0 min 0,000 mm 0,0 UV-I 19 W/m -4,2 C -3,4 C 8,0 km/h (2 Bft) 100,00 %
25.11.2015 07:55 -3,4 C 94 % 1012,3 hPa 0,0 l/m 0,9 km/h (0 Bft) NW 312 0 min 0,000 mm 0,0 UV-I 23 W/m -4,2 C -3,4 C 3,2 km/h (1 Bft) 97,44 %
25.11.2015 08:00 -3,4 C 94 % 1012,5 hPa 0,0 l/m 1,7 km/h (1 Bft) NW 316 0 min 0,000 mm 0,0 UV-I 27 W/m -4,2 C -3,4 C 3,2 km/h (1 Bft) 93,39 %
25.11.2015 08:05 -3,4 C 94 % 1012,5 hPa 0,0 l/m 0,7 km/h (0 Bft) N-NW 329 0 min 0,000 mm 0,0 UV-I 28 W/m -4,2 C -3,4 C 3,2 km/h (1 Bft) 95,73 %
25.11.2015 08:10 -3,3 C 94 % 1012,4 hPa 0,0 l/m 0,3 km/h (0 Bft) N-NW 346 0 min 0,000 mm 0,0 UV-I 30 W/m -4,1 C -3,3 C 3,2 km/h (1 Bft) 96,61 %
25.11.2015 08:15 -3,2 C 94 % 1012,4 hPa 0,0 l/m 0,2 km/h (0 Bft) N 350 0 min 0,000 mm 0,0 UV-I 29 W/m -4,0 C -3,2 C 1,6 km/h (1 Bft) 96,61 %
25.11.2015 08:20 -3,2 C 94 % 1012,4 hPa 0,0 l/m 0,6 km/h (0 Bft) NW 314 0 min 0,000 mm 0,0 UV-I 26 W/m -4,0 C -3,2 C 3,2 km/h (1 Bft) 95,00 %
25.11.2015 08:25 -3,2 C 94 % 1012,3 hPa 0,0 l/m 0,2 km/h (0 Bft) N-NW 347 0 min 0,000 mm 0,0 UV-I 28 W/m -4,0 C -3,2 C 1,6 km/h (1 Bft) 97,17 %
25.11.2015 08:30 -3,2 C 94 % 1012,4 hPa 0,0 l/m 0,0 km/h (0 Bft) N-NW 347 0 min 0,000 mm 0,0 UV-I 29 W/m -4,0 C -3,2 C 1,6 km/h (1 Bft) 100,00 %
25.11.2015 08:35 -3,2 C 94 % 1012,4 hPa 0,0 l/m 0,2 km/h (0 Bft) N-NW 347 0 min 0,000 mm 0,0 UV-I 36 W/m -4,0 C -3,2 C 1,6 km/h (1 Bft) 98,33 %
25.11.2015 08:40 -3,1 C 93 % 1012,4 hPa 0,0 l/m 0,4 km/h (0 Bft) N 350 0 min 0,000 mm 0,0 UV-I 44 W/m -4,1 C -3,1 C 3,2 km/h (1 Bft) 99,15 %
25.11.2015 08:45 -3,1 C 94 % 1012,4 hPa 0,0 l/m 0,9 km/h (0 Bft) N 360 0 min 0,000 mm 0,0 UV-I 41 W/m -3,9 C -3,1 C 3,2 km/h (1 Bft) 100,00 %
25.11.2015 08:50 -3,1 C 93 % 1012,4 hPa 0,0 l/m 0,2 km/h (0 Bft) N 360 0 min 0,000 mm 0,0 UV-I 42 W/m -4,1 C -3,1 C 1,6 km/h (1 Bft) 97,46 %
25.11.2015 08:55 -3,1 C 94 % 1012,4 hPa 0,0 l/m 0,1 km/h (0 Bft) N 360 0 min 0,000 mm 0,0 UV-I 48 W/m -3,9 C -3,1 C 1,6 km/h (1 Bft) 100,00 %
25.11.2015 09:00 -3,1 C 93 % 1012,4 hPa 0,0 l/m 0,0 km/h (0 Bft) N 360 0 min 0,000 mm 0,0 UV-I 64 W/m -4,1 C -3,1 C 0,0 km/h (0 Bft) 99,10 %
25.11.2015 09:05 -2,9 C 93 % 1012,3 hPa 0,0 l/m 0,0 km/h (0 Bft) N 360 0 min 0,000 mm 0,0 UV-I 57 W/m -3,9 C -2,9 C 0,0 km/h (0 Bft) 100,00 %
25.11.2015 09:10 -2,9 C 94 % 1012,2 hPa 0,0 l/m 0,1 km/h (0 Bft) N 360 0 min 0,000 mm 0,0 UV-I 51 W/m -3,7 C -2,9 C 1,6 km/h (1 Bft) 100,00 %
25.11.2015 09:15 -2,9 C 93 % 1012,1 hPa 0,0 l/m 0,0 km/h (0 Bft) N 360 0 min 0,000 mm 0,0 UV-I 63 W/m -3,9 C -2,9 C 0,0 km/h (0 Bft) 97,50 %
25.11.2015 09:20 -2,9 C 94 % 1012,2 hPa 0,0 l/m 0,0 km/h (0 Bft) N 360 0 min 0,000 mm 0,0 UV-I 88 W/m -3,7 C -2,9 C 1,6 km/h (1 Bft) 99,06 %
25.11.2015 09:25 -2,8 C 93 % 1012,1 hPa 0,0 l/m 0,7 km/h (0 Bft) O 80 0 min 0,000 mm 0,0 UV-I 109 W/m -3,8 C -2,8 C 3,2 km/h (1 Bft) 99,15 %
25.11.2015 09:30 -2,8 C 93 % 1012,1 hPa 0,0 l/m 0,2 km/h (0 Bft) O 80 0 min 0,000 mm 0,0 UV-I 93 W/m -3,8 C -2,8 C 1,6 km/h (1 Bft) 99,15 %
25.11.2015 09:35 -2,7 C 93 % 1012,1 hPa 0,0 l/m 0,4 km/h (0 Bft) O-SO 105 0 min 0,000 mm 0,0 UV-I 84 W/m -3,7 C -2,7 C 3,2 km/h (1 Bft) 97,46 %
25.11.2015 09:40 -2,6 C 92 % 1012,2 hPa 0,0 l/m 1,4 km/h (1 Bft) S-SO 153 0 min 0,000 mm 0,0 UV-I 68 W/m -3,7 C -2,6 C 3,2 km/h (1 Bft) 99,15 %
25.11.2015 09:45 -2,5 C 93 % 1012,1 hPa 0,0 l/m 0,1 km/h (0 Bft) S-SO 153 0 min 0,000 mm 0,0 UV-I 76 W/m -3,5 C -2,5 C 1,6 km/h (1 Bft) 99,15 %
25.11.2015 09:50 -2,4 C 93 % 1012,1 hPa 0,0 l/m 0,1 km/h (0 Bft) S-SO 153 0 min 0,000 mm 0,0 UV-I 100 W/m -3,4 C -2,4 C 1,6 km/h (1 Bft) 98,31 %
25.11.2015 09:55 -2,3 C 93 % 1012,1 hPa 0,0 l/m 0,3 km/h (0 Bft) O 86 0 min 0,000 mm 0,0 UV-I 109 W/m -3,3 C -2,3 C 3,2 km/h (1 Bft) 98,33 %
25.11.2015 10:00 -2,2 C 93 % 1012,1 hPa 0,0 l/m 0,8 km/h (0 Bft) NW 325 0 min 0,025 mm 0,0 UV-I 106 W/m -3,2 C -2,2 C 4,8 km/h (1 Bft) 96,61 %
25.11.2015 10:05 -2,2 C 93 % 1012,1 hPa 0,0 l/m 0,9 km/h (0 Bft) NW 325 0 min 0,000 mm 0,0 UV-I 117 W/m -3,2 C -2,2 C 3,2 km/h (1 Bft) 95,73 %
25.11.2015 10:10 -2,2 C 92 % 1012,1 hPa 0,0 l/m 1,4 km/h (1 Bft) N-NW 342 0 min 0,000 mm 0,0 UV-I 114 W/m -3,3 C -2,2 C 3,2 km/h (1 Bft) 95,76 %
25.11.2015 10:15 -2,2 C 92 % 1012,1 hPa 0,0 l/m 0,4 km/h (0 Bft) N-NW 333 0 min 0,000 mm 0,0 UV-I 100 W/m -3,3 C -2,2 C 3,2 km/h (1 Bft) 98,17 %
25.11.2015 10:20 -2,2 C 92 % 1012,1 hPa 0,0 l/m 0,5 km/h (0 Bft) N-NW 333 0 min 0,000 mm 0,0 UV-I 101 W/m -3,3 C -2,2 C 1,6 km/h (1 Bft) 97,44 %
25.11.2015 10:25 -2,1 C 92 % 1012,0 hPa 0,0 l/m 0,3 km/h (0 Bft) N-NW 333 0 min 0,000 mm 0,0 UV-I 94 W/m -3,2 C -2,1 C 1,6 km/h (1 Bft) 94,92 %
25.11.2015 10:30 -2,1 C 92 % 1011,9 hPa 0,0 l/m 0,2 km/h (0 Bft) N-NW 333 0 min 0,000 mm 0,0 UV-I 90 W/m -3,2 C -2,1 C 3,2 km/h (1 Bft) 98,31 %
25.11.2015 10:35 -2,1 C 92 % 1011,9 hPa 0,0 l/m 0,4 km/h (0 Bft) N-NW 333 0 min 0,000 mm 0,0 UV-I 100 W/m -3,2 C -2,1 C 3,2 km/h (1 Bft) 100,00 %
25.11.2015 10:40 -2,0 C 92 % 1011,7 hPa 0,0 l/m 0,0 km/h (0 Bft) N-NW 333 0 min 0,000 mm 0,2 UV-I 124 W/m -3,1 C -2,0 C 1,6 km/h (1 Bft) 99,17 %
25.11.2015 10:45 -1,9 C 91 % 1011,7 hPa 0,0 l/m 0,9 km/h (0 Bft) N 11 0 min 0,000 mm 0,5 UV-I 132 W/m -3,2 C -1,9 C 3,2 km/h (1 Bft) 99,15 %
25.11.2015 10:50 -1,8 C 92 % 1011,6 hPa 0,0 l/m 1,4 km/h (1 Bft) NO 44 0 min 0,000 mm 0,3 UV-I 116 W/m -2,9 C -1,8 C 3,2 km/h (1 Bft) 98,31 %
25.11.2015 10:55 -1,7 C 93 % 1011,5 hPa 0,0 l/m 1,6 km/h (1 Bft) NO 44 0 min 0,000 mm 0,2 UV-I 100 W/m -2,7 C -1,7 C 4,8 km/h (1 Bft) 99,15 %
25.11.2015 11:00 -1,6 C 92 % 1011,5 hPa 0,0 l/m 1,0 km/h (0 Bft) NO 44 0 min 0,026 mm 0,5 UV-I 111 W/m -2,7 C -1,6 C 3,2 km/h (1 Bft) 98,33 %
25.11.2015 11:05 -1,6 C 90 % 1011,5 hPa 0,0 l/m 0,5 km/h (0 Bft) NO 44 0 min 0,000 mm 0,5 UV-I 119 W/m -3,0 C -1,6 C 1,6 km/h (1 Bft) 99,06 %
25.11.2015 11:10 -1,6 C 89 % 1011,5 hPa 0,0 l/m 1,7 km/h (1 Bft) NO 44 0 min 0,000 mm 0,5 UV-I 85 W/m -3,2 C -1,6 C 3,2 km/h (1 Bft) 96,61 %
25.11.2015 11:15 -1,5 C 91 % 1011,4 hPa 0,0 l/m 1,9 km/h (1 Bft) NO 44 0 min 0,000 mm 0,5 UV-I 110 W/m -2,8 C -1,5 C 3,2 km/h (1 Bft) 97,50 %
25.11.2015 11:20 -1,4 C 91 % 1011,4 hPa 0,0 l/m 0,7 km/h (0 Bft) NO 44 0 min 0,000 mm 0,6 UV-I 141 W/m -2,7 C -1,4 C 3,2 km/h (1 Bft) 98,35 %
25.11.2015 11:25 -1,4 C 90 % 1011,3 hPa 0,0 l/m 1,1 km/h (1 Bft) NO 43 0 min 0,000 mm 0,6 UV-I 165 W/m -2,8 C -1,4 C 4,8 km/h (1 Bft) 99,17 %
25.11.2015 11:30 -1,2 C 90 % 1011,2 hPa 0,0 l/m 0,2 km/h (0 Bft) NO 43 0 min 0,000 mm 0,6 UV-I 167 W/m -2,6 C -1,2 C 1,6 km/h (1 Bft) 97,46 %
25.11.2015 11:35 -1,1 C 89 % 1011,1 hPa 0,0 l/m 2,2 km/h (1 Bft) NO 43 0 min 0,000 mm 0,6 UV-I 172 W/m -2,7 C -1,1 C 3,2 km/h (1 Bft) 100,00 %
25.11.2015 11:40 -1,1 C 89 % 1011,2 hPa 0,0 l/m 2,0 km/h (1 Bft) NO 43 0 min 0,000 mm 0,6 UV-I 151 W/m -2,7 C -1,1 C 4,8 km/h (1 Bft) 99,15 %
25.11.2015 11:45 -1,1 C 88 % 1011,1 hPa 0,0 l/m 3,1 km/h (1 Bft) NO 50 0 min 0,000 mm 0,6 UV-I 160 W/m -2,8 C -1,1 C 6,4 km/h (2 Bft) 100,00 %
25.11.2015 11:50 -0,9 C 88 % 1010,9 hPa 0,0 l/m 3,9 km/h (1 Bft) NO 52 0 min 0,000 mm 0,6 UV-I 157 W/m -2,6 C -0,9 C 8,0 km/h (2 Bft) 98,31 %
25.11.2015 11:55 -0,9 C 87 % 1010,9 hPa 0,0 l/m 5,1 km/h (1 Bft) O-NO 57 0 min 0,000 mm 0,6 UV-I 143 W/m -2,8 C -0,9 C 6,4 km/h (2 Bft) 97,44 %
25.11.2015 12:00 -0,8 C 88 % 1011,0 hPa 0,0 l/m 4,6 km/h (1 Bft) O-NO 66 0 min 0,051 mm 0,5 UV-I 143 W/m -2,5 C -0,8 C 6,4 km/h (2 Bft) 97,52 %
25.11.2015 12:05 -0,8 C 88 % 1010,9 hPa 0,0 l/m 4,0 km/h (1 Bft) NO 51 0 min 0,000 mm 0,4 UV-I 139 W/m -2,5 C -0,8 C 6,4 km/h (2 Bft) 97,44 %
25.11.2015 12:10 -0,7 C 88 % 1010,9 hPa 0,0 l/m 3,4 km/h (1 Bft) NO 49 0 min 0,000 mm 0,1 UV-I 132 W/m -2,4 C -0,7 C 4,8 km/h (1 Bft) 94,50 %
25.11.2015 12:15 -0,7 C 88 % 1010,8 hPa 0,0 l/m 2,3 km/h (1 Bft) NO 49 0 min 0,000 mm 0,5 UV-I 163 W/m -2,4 C -0,7 C 4,8 km/h (1 Bft) 97,46 %
25.11.2015 12:20 -0,7 C 86 % 1010,7 hPa 0,0 l/m 1,4 km/h (1 Bft) NO 49 0 min 0,000 mm 0,5 UV-I 178 W/m -2,7 C -0,7 C 4,8 km/h (1 Bft) 97,44 %
25.11.2015 12:25 -0,5 C 88 % 1010,6 hPa 0,0 l/m 0,1 km/h (0 Bft) NO 49 0 min 0,000 mm 0,5 UV-I 159 W/m -2,2 C -0,5 C 1,6 km/h (1 Bft) 95,76 %
25.11.2015 12:30 -0,4 C 84 % 1010,6 hPa 0,0 l/m 0,4 km/h (0 Bft) NO 49 0 min 0,000 mm 0,3 UV-I 140 W/m -2,8 C -0,4 C 3,2 km/h (1 Bft) 100,00 %
25.11.2015 12:35 -0,3 C 87 % 1010,6 hPa 0,0 l/m 0,3 km/h (0 Bft) NO 49 0 min 0,000 mm 0,0 UV-I 108 W/m -2,2 C -0,3 C 3,2 km/h (1 Bft) 99,15 %
25.11.2015 12:40 -0,3 C 87 % 1010,5 hPa 0,0 l/m 0,5 km/h (0 Bft) NO 46 0 min 0,000 mm 0,0 UV-I 105 W/m -2,2 C -0,3 C 3,2 km/h (1 Bft) 97,46 %
25.11.2015 12:45 -0,3 C 88 % 1010,3 hPa 0,0 l/m 2,4 km/h (1 Bft) NO 46 0 min 0,000 mm 0,0 UV-I 122 W/m -2,0 C -0,3 C 3,2 km/h (1 Bft) 96,67 %
25.11.2015 12:50 -0,2 C 86 % 1010,3 hPa 0,0 l/m 1,3 km/h (1 Bft) NO 46 0 min 0,000 mm 0,0 UV-I 122 W/m -2,3 C -0,2 C 3,2 km/h (1 Bft) 100,00 %
25.11.2015 12:55 -0,1 C 85 % 1010,1 hPa 0,0 l/m 2,3 km/h (1 Bft) O-SO 123 0 min 0,000 mm 0,0 UV-I 110 W/m -2,3 C -0,1 C 4,8 km/h (1 Bft) 99,15 %
25.11.2015 13:00 -0,1 C 85 % 1010,1 hPa 0,0 l/m 0,8 km/h (0 Bft) O-SO 123 0 min 0,050 mm 0,0 UV-I 117 W/m -2,3 C -0,1 C 3,2 km/h (1 Bft) 99,07 %
25.11.2015 13:05 0,1 C 84 % 1010,1 hPa 0,0 l/m 0,4 km/h (0 Bft) O-SO 123 0 min 0,000 mm 0,0 UV-I 128 W/m -2,3 C 0,1 C 3,2 km/h (1 Bft) 98,31 %
25.11.2015 13:10 0,1 C 83 % 1010,0 hPa 0,0 l/m 1,5 km/h (1 Bft) O-SO 123 0 min 0,000 mm 0,0 UV-I 119 W/m -2,4 C 0,1 C 3,2 km/h (1 Bft) 99,15 %
25.11.2015 13:15 0,1 C 84 % 1010,0 hPa 0,0 l/m 0,6 km/h (0 Bft) O-SO 117 0 min 0,000 mm 0,0 UV-I 103 W/m -2,3 C 0,1 C 3,2 km/h (1 Bft) 100,00 %
25.11.2015 13:20 0,2 C 86 % 1010,1 hPa 0,0 l/m 3,2 km/h (1 Bft) NO 52 0 min 0,000 mm 0,0 UV-I 96 W/m -1,9 C 0,2 C 4,8 km/h (1 Bft) 99,15 %
25.11.2015 13:25 0,1 C 85 % 1010,0 hPa 0,0 l/m 2,1 km/h (1 Bft) NO 52 0 min 0,000 mm 0,0 UV-I 87 W/m -2,1 C 0,1 C 3,2 km/h (1 Bft) 100,00 %
25.11.2015 13:30 0,0 C 86 % 1009,9 hPa 0,0 l/m 1,3 km/h (1 Bft) NO 51 0 min 0,000 mm 0,0 UV-I 81 W/m -2,1 C 0,0 C 3,2 km/h (1 Bft) 99,12 %
25.11.2015 13:35 0,0 C 85 % 1009,9 hPa 0,0 l/m 2,5 km/h (1 Bft) NO 50 0 min 0,000 mm 0,0 UV-I 72 W/m -2,2 C 0,0 C 4,8 km/h (1 Bft) 99,15 %
25.11.2015 13:40 0,0 C 85 % 1009,9 hPa 0,0 l/m 1,6 km/h (1 Bft) NO 50 0 min 0,000 mm 0,0 UV-I 63 W/m -2,2 C 0,0 C 3,2 km/h (1 Bft) 97,44 %
25.11.2015 13:45 0,0 C 85 % 1009,9 hPa 0,0 l/m 1,7 km/h (1 Bft) NO 50 0 min 0,000 mm 0,0 UV-I 57 W/m -2,2 C 0,0 C 3,2 km/h (1 Bft) 98,31 %
25.11.2015 13:50 0,0 C 85 % 1009,8 hPa 0,0 l/m 1,8 km/h (1 Bft) NO 50 0 min 0,000 mm 0,0 UV-I 57 W/m -2,2 C 0,0 C 3,2 km/h (1 Bft) 97,50 %
25.11.2015 13:55 0,0 C 85 % 1009,7 hPa 0,0 l/m 0,3 km/h (0 Bft) NO 50 0 min 0,000 mm 0,0 UV-I 57 W/m -2,2 C 0,0 C 1,6 km/h (1 Bft) 96,61 %
25.11.2015 14:00 0,0 C 85 % 1009,7 hPa 0,0 l/m 0,0 km/h (0 Bft) NO 50 0 min 0,026 mm 0,0 UV-I 54 W/m -2,2 C 0,0 C 1,6 km/h (1 Bft) 95,76 %
25.11.2015 14:05 0,1 C 85 % 1009,6 hPa 0,0 l/m 0,1 km/h (0 Bft) NO 50 0 min 0,000 mm 0,0 UV-I 49 W/m -2,1 C 0,1 C 1,6 km/h (1 Bft) 94,87 %
25.11.2015 14:10 0,1 C 85 % 1009,6 hPa 0,0 l/m 1,5 km/h (1 Bft) NO 50 0 min 0,000 mm 0,0 UV-I 44 W/m -2,1 C 0,1 C 3,2 km/h (1 Bft) 95,04 %
25.11.2015 14:15 0,1 C 86 % 1009,6 hPa 0,0 l/m 2,0 km/h (1 Bft) NO 50 0 min 0,000 mm 0,0 UV-I 36 W/m -2,0 C 0,1 C 3,2 km/h (1 Bft) 98,17 %
25.11.2015 14:20 0,1 C 85 % 1009,5 hPa 0,0 l/m 2,1 km/h (1 Bft) NO 50 0 min 0,000 mm 0,0 UV-I 33 W/m -2,1 C 0,1 C 3,2 km/h (1 Bft) 97,50 %
25.11.2015 14:25 0,1 C 87 % 1009,5 hPa 0,0 l/m 2,4 km/h (1 Bft) NO 50 0 min 0,000 mm 0,0 UV-I 33 W/m -1,8 C 0,1 C 4,8 km/h (1 Bft) 97,46 %
25.11.2015 14:30 0,1 C 86 % 1009,5 hPa 0,0 l/m 3,1 km/h (1 Bft) O-NO 57 0 min 0,000 mm 0,0 UV-I 30 W/m -2,0 C 0,1 C 4,8 km/h (1 Bft) 97,44 %
25.11.2015 14:35 0,1 C 87 % 1009,5 hPa 0,0 l/m 3,2 km/h (1 Bft) NO 53 0 min 0,000 mm 0,0 UV-I 28 W/m -1,8 C 0,1 C 4,8 km/h (1 Bft) 99,15 %
25.11.2015 14:40 0,1 C 87 % 1009,4 hPa 0,0 l/m 3,4 km/h (1 Bft) NO 53 0 min 0,000 mm 0,0 UV-I 29 W/m -1,8 C 0,1 C 4,8 km/h (1 Bft) 98,31 %
25.11.2015 14:45 0,0 C 87 % 1009,3 hPa 0,0 l/m 3,6 km/h (1 Bft) O-NO 59 0 min 0,000 mm 0,0 UV-I 32 W/m -1,9 C 0,0 C 4,8 km/h (1 Bft) 99,09 %
25.11.2015 14:50 0,0 C 88 % 1009,3 hPa 0,0 l/m 1,2 km/h (1 Bft) O-NO 59 0 min 0,000 mm 0,0 UV-I 30 W/m -1,7 C 0,0 C 3,2 km/h (1 Bft) 100,00 %
25.11.2015 14:55 0,1 C 88 % 1009,3 hPa 0,0 l/m 2,6 km/h (1 Bft) NO 55 0 min 0,000 mm 0,0 UV-I 26 W/m -1,6 C 0,1 C 4,8 km/h (1 Bft) 98,35 %
25.11.2015 15:00 0,0 C 87 % 1009,3 hPa 0,0 l/m 4,4 km/h (1 Bft) O-NO 58 0 min 0,025 mm 0,0 UV-I 27 W/m -1,9 C 0,0 C 8,0 km/h (2 Bft) 100,00 %
25.11.2015 15:05 -0,1 C 86 % 1009,2 hPa 0,0 l/m 5,5 km/h (1 Bft) O-NO 59 0 min 0,000 mm 0,0 UV-I 29 W/m -2,2 C -0,1 C 8,0 km/h (2 Bft) 100,00 %
25.11.2015 15:10 -0,1 C 87 % 1009,1 hPa 0,0 l/m 5,3 km/h (1 Bft) O-NO 75 0 min 0,000 mm 0,0 UV-I 27 W/m -2,0 C -0,1 C 9,7 km/h (2 Bft) 100,00 %
25.11.2015 15:15 -0,1 C 87 % 1009,1 hPa 0,0 l/m 5,6 km/h (1 Bft) O-NO 61 0 min 0,000 mm 0,0 UV-I 24 W/m -2,0 C -0,1 C 8,0 km/h (2 Bft) 99,15 %
25.11.2015 15:20 -0,1 C 87 % 1009,1 hPa 0,0 l/m 4,5 km/h (1 Bft) O-NO 73 0 min 0,000 mm 0,0 UV-I 20 W/m -2,0 C -0,1 C 6,4 km/h (2 Bft) 100,00 %
25.11.2015 15:25 -0,2 C 86 % 1009,0 hPa 0,0 l/m 5,0 km/h (1 Bft) O-NO 65 0 min 0,000 mm 0,0 UV-I 18 W/m -2,3 C -0,2 C 8,0 km/h (2 Bft) 98,15 %
25.11.2015 15:30 -0,2 C 86 % 1009,0 hPa 0,0 l/m 6,1 km/h (2 Bft) O-NO 69 0 min 0,000 mm 0,0 UV-I 17 W/m -2,3 C -0,2 C 9,7 km/h (2 Bft) 99,17 %
25.11.2015 15:35 -0,2 C 87 % 1009,0 hPa 0,0 l/m 4,6 km/h (1 Bft) O-NO 64 0 min 0,000 mm 0,0 UV-I 14 W/m -2,1 C -0,2 C 6,4 km/h (2 Bft) 100,00 %
25.11.2015 15:40 -0,2 C 87 % 1008,9 hPa 0,0 l/m 3,2 km/h (1 Bft) O-NO 76 0 min 0,000 mm 0,0 UV-I 13 W/m -2,1 C -0,2 C 4,8 km/h (1 Bft) 98,20 %
25.11.2015 15:45 -0,2 C 88 % 1008,9 hPa 0,0 l/m 4,2 km/h (1 Bft) O-NO 66 0 min 0,000 mm 0,0 UV-I 12 W/m -1,9 C -0,2 C 6,4 km/h (2 Bft) 99,15 %
25.11.2015 15:50 -0,2 C 88 % 1008,9 hPa 0,0 l/m 3,7 km/h (1 Bft) O-NO 59 0 min 0,000 mm 0,0 UV-I 11 W/m -1,9 C -0,2 C 6,4 km/h (2 Bft) 99,15 %
25.11.2015 15:55 -0,2 C 89 % 1008,8 hPa 0,0 l/m 4,3 km/h (1 Bft) O-NO 63 0 min 0,000 mm 0,0 UV-I 10 W/m -1,8 C -0,2 C 8,0 km/h (2 Bft) 97,44 %
25.11.2015 16:00 -0,2 C 89 % 1008,8 hPa 0,0 l/m 6,1 km/h (2 Bft) O-NO 59 0 min 0,000 mm 0,0 UV-I 8 W/m -1,8 C -0,2 C 9,7 km/h (2 Bft) 95,76 %
25.11.2015 16:05 -0,2 C 89 % 1008,7 hPa 0,0 l/m 5,4 km/h (1 Bft) O-NO 59 0 min 0,000 mm 0,0 UV-I 6 W/m -1,8 C -0,2 C 8,0 km/h (2 Bft) 96,58 %
25.11.2015 16:10 -0,2 C 89 % 1008,8 hPa 0,0 l/m 4,3 km/h (1 Bft) NO 53 0 min 0,000 mm 0,0 UV-I 4 W/m -1,8 C -0,2 C 6,4 km/h (2 Bft) 96,61 %
25.11.2015 16:15 -0,2 C 89 % 1008,8 hPa 0,0 l/m 3,8 km/h (1 Bft) N-NO 29 0 min 0,000 mm 0,0 UV-I 0 W/m -1,8 C -0,2 C 6,4 km/h (2 Bft) 97,46 %
25.11.2015 16:20 -0,2 C 89 % 1008,8 hPa 0,0 l/m 4,2 km/h (1 Bft) O-NO 71 0 min 0,000 mm 0,0 UV-I 0 W/m -1,8 C -0,2 C 6,4 km/h (2 Bft) 95,83 %
25.11.2015 16:25 -0,2 C 89 % 1008,8 hPa 0,0 l/m 5,0 km/h (1 Bft) NO 55 0 min 0,000 mm 0,0 UV-I 0 W/m -1,8 C -0,2 C 6,4 km/h (2 Bft) 96,69 %
25.11.2015 16:30 -0,2 C 89 % 1008,8 hPa 0,0 l/m 4,7 km/h (1 Bft) O-NO 57 0 min 0,000 mm 0,0 UV-I 0 W/m -1,8 C -0,2 C 8,0 km/h (2 Bft) 98,29 %
25.11.2015 16:35 -0,2 C 90 % 1008,8 hPa 0,0 l/m 3,3 km/h (1 Bft) NO 52 0 min 0,000 mm 0,0 UV-I 0 W/m -1,6 C -0,2 C 4,8 km/h (1 Bft) 100,00 %
25.11.2015 16:40 -0,2 C 90 % 1008,8 hPa 0,0 l/m 3,8 km/h (1 Bft) NO 51 0 min 0,000 mm 0,0 UV-I 0 W/m -1,6 C -0,2 C 6,4 km/h (2 Bft) 97,46 %
25.11.2015 16:45 -0,2 C 90 % 1008,8 hPa 0,0 l/m 3,0 km/h (1 Bft) NO 44 0 min 0,000 mm 0,0 UV-I 0 W/m -1,6 C -0,2 C 6,4 km/h (2 Bft) 98,29 %
25.11.2015 16:50 -0,2 C 91 % 1008,7 hPa 0,0 l/m 2,7 km/h (1 Bft) NO 47 0 min 0,000 mm 0,0 UV-I 0 W/m -1,5 C -0,2 C 4,8 km/h (1 Bft) 100,00 %
25.11.2015 16:55 -0,2 C 90 % 1008,7 hPa 0,0 l/m 4,4 km/h (1 Bft) O-NO 69 0 min 0,000 mm 0,0 UV-I 0 W/m -1,6 C -0,2 C 6,4 km/h (2 Bft) 98,17 %
25.11.2015 17:00 -0,3 C 90 % 1008,7 hPa 0,0 l/m 5,1 km/h (1 Bft) O-NO 74 0 min 0,000 mm 0,0 UV-I 0 W/m -1,7 C -0,3 C 8,0 km/h (2 Bft) 99,17 %
25.11.2015 17:05 -0,3 C 90 % 1008,6 hPa 0,0 l/m 4,3 km/h (1 Bft) NO 55 0 min 0,000 mm 0,0 UV-I 0 W/m -1,7 C -0,3 C 6,4 km/h (2 Bft) 99,15 %
25.11.2015 17:10 -0,3 C 91 % 1008,5 hPa 0,0 l/m 3,4 km/h (1 Bft) NO 55 0 min 0,000 mm 0,0 UV-I 0 W/m -1,6 C -0,3 C 4,8 km/h (1 Bft) 100,00 %
25.11.2015 17:15 -0,4 C 92 % 1008,6 hPa 0,0 l/m 2,5 km/h (1 Bft) NO 55 0 min 0,000 mm 0,0 UV-I 0 W/m -1,5 C -0,4 C 4,8 km/h (1 Bft) 99,11 %
25.11.2015 17:20 -0,4 C 92 % 1008,5 hPa 0,0 l/m 1,5 km/h (1 Bft) NO 55 0 min 0,000 mm 0,0 UV-I 0 W/m -1,5 C -0,4 C 3,2 km/h (1 Bft) 99,15 %
25.11.2015 17:25 -0,4 C 92 % 1008,5 hPa 0,0 l/m 2,2 km/h (1 Bft) NO 55 0 min 0,000 mm 0,0 UV-I 0 W/m -1,5 C -0,4 C 4,8 km/h (1 Bft) 98,33 %
25.11.2015 17:30 -0,5 C 92 % 1008,5 hPa 0,0 l/m 2,2 km/h (1 Bft) NO 55 0 min 0,000 mm 0,0 UV-I 0 W/m -1,6 C -0,5 C 3,2 km/h (1 Bft) 99,15 %
25.11.2015 17:35 -0,6 C 92 % 1008,5 hPa 0,0 l/m 1,5 km/h (1 Bft) O-SO 111 0 min 0,000 mm 0,0 UV-I 0 W/m -1,7 C -0,6 C 4,8 km/h (1 Bft) 98,31 %
25.11.2015 17:40 -0,6 C 91 % 1008,5 hPa 0,0 l/m 2,2 km/h (1 Bft) O-SO 110 0 min 0,000 mm 0,0 UV-I 0 W/m -1,9 C -0,6 C 3,2 km/h (1 Bft) 96,58 %
25.11.2015 17:45 -0,7 C 92 % 1008,5 hPa 0,0 l/m 1,6 km/h (1 Bft) O-SO 110 0 min 0,000 mm 0,0 UV-I 0 W/m -1,8 C -0,7 C 3,2 km/h (1 Bft) 100,00 %
25.11.2015 17:50 -0,7 C 93 % 1008,5 hPa 0,0 l/m 1,3 km/h (1 Bft) O-SO 110 0 min 0,000 mm 0,0 UV-I 0 W/m -1,7 C -0,7 C 3,2 km/h (1 Bft) 97,17 %
25.11.2015 17:55 -0,8 C 94 % 1008,4 hPa 0,0 l/m 2,1 km/h (1 Bft) O 82 0 min 0,000 mm 0,0 UV-I 0 W/m -1,6 C -0,8 C 3,2 km/h (1 Bft) 97,44 %
25.11.2015 18:00 -0,7 C 94 % 1008,5 hPa 0,0 l/m 2,0 km/h (1 Bft) O 80 0 min 0,000 mm 0,0 UV-I 0 W/m -1,5 C -0,7 C 4,8 km/h (1 Bft) 97,52 %
25.11.2015 18:05 -0,7 C 94 % 1008,5 hPa 0,0 l/m 0,8 km/h (0 Bft) O 80 0 min 0,000 mm 0,0 UV-I 0 W/m -1,5 C -0,7 C 3,2 km/h (1 Bft) 95,83 %
25.11.2015 18:10 -0,8 C 94 % 1008,4 hPa 0,0 l/m 0,0 km/h (0 Bft) O 80 0 min 0,000 mm 0,0 UV-I 0 W/m -1,6 C -0,8 C 1,6 km/h (1 Bft) 96,61 %
25.11.2015 18:15 -0,8 C 94 % 1008,4 hPa 0,0 l/m 0,9 km/h (0 Bft) O 80 0 min 0,000 mm 0,0 UV-I 0 W/m -1,6 C -0,8 C 3,2 km/h (1 Bft) 97,50 %
25.11.2015 18:20 -0,8 C 94 % 1008,5 hPa 0,0 l/m 1,3 km/h (1 Bft) O 80 0 min 0,000 mm 0,0 UV-I 0 W/m -1,6 C -0,8 C 3,2 km/h (1 Bft) 97,44 %
25.11.2015 18:25 -0,8 C 94 % 1008,5 hPa 0,0 l/m 1,8 km/h (1 Bft) O-NO 72 0 min 0,000 mm 0,0 UV-I 0 W/m -1,6 C -0,8 C 3,2 km/h (1 Bft) 95,54 %
25.11.2015 18:30 -0,9 C 94 % 1008,5 hPa 0,0 l/m 1,3 km/h (1 Bft) NO 51 0 min 0,000 mm 0,0 UV-I 0 W/m -1,7 C -0,9 C 3,2 km/h (1 Bft) 95,76 %
25.11.2015 18:35 -0,9 C 95 % 1008,5 hPa 0,0 l/m 2,4 km/h (1 Bft) N-NO 27 0 min 0,000 mm 0,0 UV-I 0 W/m -1,6 C -0,9 C 3,2 km/h (1 Bft) 98,29 %
25.11.2015 18:40 -0,9 C 94 % 1008,5 hPa 0,0 l/m 1,7 km/h (1 Bft) N-NO 27 0 min 0,000 mm 0,0 UV-I 0 W/m -1,7 C -0,9 C 3,2 km/h (1 Bft) 98,31 %
25.11.2015 18:45 -0,9 C 95 % 1008,5 hPa 0,0 l/m 0,3 km/h (0 Bft) N-NO 27 0 min 0,000 mm 0,0 UV-I 0 W/m -1,6 C -0,9 C 1,6 km/h (1 Bft) 98,29 %
25.11.2015 18:50 -0,9 C 95 % 1008,5 hPa 0,0 l/m 0,9 km/h (0 Bft) N-NO 27 0 min 0,000 mm 0,0 UV-I 0 W/m -1,6 C -0,9 C 3,2 km/h (1 Bft) 96,69 %
25.11.2015 18:55 -1,0 C 95 % 1008,4 hPa 0,0 l/m 2,2 km/h (1 Bft) N-NO 27 0 min 0,000 mm 0,0 UV-I 0 W/m -1,7 C -1,0 C 4,8 km/h (1 Bft) 100,00 %
25.11.2015 19:00 -1,0 C 95 % 1008,4 hPa 0,0 l/m 2,1 km/h (1 Bft) N-NO 29 0 min 0,000 mm 0,0 UV-I 0 W/m -1,7 C -1,0 C 3,2 km/h (1 Bft) 97,44 %
25.11.2015 19:05 -1,0 C 95 % 1008,5 hPa 0,0 l/m 1,3 km/h (1 Bft) N-NO 29 0 min 0,000 mm 0,0 UV-I 0 W/m -1,7 C -1,0 C 3,2 km/h (1 Bft) 100,00 %
25.11.2015 19:10 -1,1 C 96 % 1008,4 hPa 0,0 l/m 2,7 km/h (1 Bft) N-NO 26 0 min 0,000 mm 0,0 UV-I 0 W/m -1,7 C -1,1 C 4,8 km/h (1 Bft) 100,00 %
25.11.2015 19:15 -1,1 C 95 % 1008,5 hPa 0,0 l/m 1,9 km/h (1 Bft) N-NO 20 0 min 0,000 mm 0,0 UV-I 0 W/m -1,8 C -1,1 C 4,8 km/h (1 Bft) 99,15 %
25.11.2015 19:20 -1,2 C 95 % 1008,4 hPa 0,0 l/m 0,9 km/h (0 Bft) N-NO 20 0 min 0,000 mm 0,0 UV-I 0 W/m -1,9 C -1,2 C 3,2 km/h (1 Bft) 98,31 %
25.11.2015 19:25 -1,2 C 96 % 1008,4 hPa 0,0 l/m 0,4 km/h (0 Bft) N-NO 19 0 min 0,000 mm 0,0 UV-I 0 W/m -1,8 C -1,2 C 3,2 km/h (1 Bft) 99,15 %
25.11.2015 19:30 -1,2 C 96 % 1008,3 hPa 0,0 l/m 0,4 km/h (0 Bft) N 9 0 min 0,000 mm 0,0 UV-I 0 W/m -1,8 C -1,2 C 3,2 km/h (1 Bft) 99,15 %
25.11.2015 19:35 -1,2 C 96 % 1008,4 hPa 0,0 l/m 0,3 km/h (0 Bft) N 5 0 min 0,000 mm 0,0 UV-I 0 W/m -1,8 C -1,2 C 3,2 km/h (1 Bft) 100,00 %
25.11.2015 19:40 -1,2 C 96 % 1008,4 hPa 0,0 l/m 0,3 km/h (0 Bft) N-NO 15 0 min 0,000 mm 0,0 UV-I 0 W/m -1,8 C -1,2 C 3,2 km/h (1 Bft) 98,29 %
25.11.2015 19:45 -1,3 C 96 % 1008,5 hPa 0,0 l/m 0,1 km/h (0 Bft) N-NO 14 0 min 0,000 mm 0,0 UV-I 0 W/m -1,9 C -1,3 C 1,6 km/h (1 Bft) 98,31 %
25.11.2015 19:50 -1,2 C 96 % 1008,3 hPa 0,0 l/m 0,1 km/h (0 Bft) N 5 0 min 0,000 mm 0,0 UV-I 0 W/m -1,8 C -1,2 C 1,6 km/h (1 Bft) 99,15 %
25.11.2015 19:55 -1,3 C 96 % 1008,4 hPa 0,0 l/m 0,2 km/h (0 Bft) N 5 0 min 0,000 mm 0,0 UV-I 0 W/m -1,9 C -1,3 C 1,6 km/h (1 Bft) 98,29 %
25.11.2015 20:00 -1,3 C 96 % 1008,4 hPa 0,0 l/m 0,4 km/h (0 Bft) N 9 0 min 0,000 mm 0,0 UV-I 0 W/m -1,9 C -1,3 C 3,2 km/h (1 Bft) 97,46 %
25.11.2015 20:05 -1,3 C 96 % 1008,3 hPa 0,0 l/m 0,1 km/h (0 Bft) N 9 0 min 0,000 mm 0,0 UV-I 0 W/m -1,9 C -1,3 C 1,6 km/h (1 Bft) 96,58 %
25.11.2015 20:10 -1,3 C 96 % 1008,3 hPa 0,0 l/m 0,6 km/h (0 Bft) N 9 0 min 0,000 mm 0,0 UV-I 0 W/m -1,9 C -1,3 C 3,2 km/h (1 Bft) 97,52 %
25.11.2015 20:15 -1,3 C 96 % 1008,3 hPa 0,0 l/m 0,1 km/h (0 Bft) N 9 0 min 0,000 mm 0,0 UV-I 0 W/m -1,9 C -1,3 C 1,6 km/h (1 Bft) 94,92 %
25.11.2015 20:20 -1,3 C 96 % 1008,4 hPa 0,0 l/m 1,0 km/h (0 Bft) N 9 0 min 0,000 mm 0,0 UV-I 0 W/m -1,9 C -1,3 C 3,2 km/h (1 Bft) 97,22 %
25.11.2015 20:25 -1,3 C 96 % 1008,4 hPa 0,0 l/m 1,1 km/h (1 Bft) N 9 0 min 0,000 mm 0,0 UV-I 0 W/m -1,9 C -1,3 C 3,2 km/h (1 Bft) 95,76 %
25.11.2015 20:30 -1,3 C 96 % 1008,5 hPa 0,0 l/m 1,3 km/h (1 Bft) N 9 0 min 0,000 mm 0,0 UV-I 0 W/m -1,9 C -1,3 C 3,2 km/h (1 Bft) 97,52 %
25.11.2015 20:35 -1,3 C 96 % 1008,5 hPa 0,0 l/m 0,7 km/h (0 Bft) N 9 0 min 0,000 mm 0,0 UV-I 0 W/m -1,9 C -1,3 C 1,6 km/h (1 Bft) 96,75 %
25.11.2015 20:40 -1,2 C 96 % 1008,4 hPa 0,0 l/m 0,1 km/h (0 Bft) N 9 0 min 0,000 mm 0,0 UV-I 0 W/m -1,8 C -1,2 C 1,6 km/h (1 Bft) 98,31 %
25.11.2015 20:45 -1,2 C 96 % 1008,4 hPa 0,0 l/m 0,0 km/h (0 Bft) N 9 0 min 0,000 mm 0,0 UV-I 0 W/m -1,8 C -1,2 C 0,0 km/h (0 Bft) 98,11 %
25.11.2015 20:50 -1,2 C 96 % 1008,4 hPa 0,0 l/m 0,0 km/h (0 Bft) N 9 0 min 0,000 mm 0,0 UV-I 0 W/m -1,8 C -1,2 C 0,0 km/h (0 Bft) 97,50 %
25.11.2015 20:55 -1,2 C 96 % 1008,4 hPa 0,0 l/m 0,0 km/h (0 Bft) N 9 0 min 0,000 mm 0,0 UV-I 0 W/m -1,8 C -1,2 C 0,0 km/h (0 Bft) 98,31 %
25.11.2015 21:00 -1,2 C 96 % 1008,3 hPa 0,0 l/m 0,0 km/h (0 Bft) N 9 0 min 0,000 mm 0,0 UV-I 0 W/m -1,8 C -1,2 C 0,0 km/h (0 Bft) 99,17 %
25.11.2015 21:05 -1,2 C 96 % 1008,4 hPa 0,0 l/m 0,0 km/h (0 Bft) N 9 0 min 0,000 mm 0,0 UV-I 0 W/m -1,8 C -1,2 C 0,0 km/h (0 Bft) 97,46 %
25.11.2015 21:10 -1,2 C 96 % 1008,4 hPa 0,0 l/m 0,0 km/h (0 Bft) N 9 0 min 0,000 mm 0,0 UV-I 0 W/m -1,8 C -1,2 C 0,0 km/h (0 Bft) 99,15 %
25.11.2015 21:15 -1,1 C 96 % 1008,4 hPa 0,0 l/m 0,4 km/h (0 Bft) N 9 0 min 0,000 mm 0,0 UV-I 0 W/m -1,7 C -1,1 C 1,6 km/h (1 Bft) 99,08 %
25.11.2015 21:20 -1,1 C 96 % 1008,4 hPa 0,0 l/m 0,5 km/h (0 Bft) N-NO 12 0 min 0,000 mm 0,0 UV-I 0 W/m -1,7 C -1,1 C 3,2 km/h (1 Bft) 98,31 %
25.11.2015 21:25 -1,1 C 96 % 1008,3 hPa 0,0 l/m 1,8 km/h (1 Bft) NO 36 0 min 0,000 mm 0,0 UV-I 0 W/m -1,7 C -1,1 C 3,2 km/h (1 Bft) 99,15 %
25.11.2015 21:30 -1,1 C 96 % 1008,4 hPa 0,0 l/m 2,0 km/h (1 Bft) NO 36 0 min 0,000 mm 0,0 UV-I 0 W/m -1,7 C -1,1 C 3,2 km/h (1 Bft) 98,31 %
25.11.2015 21:35 -1,1 C 96 % 1008,5 hPa 0,0 l/m 1,3 km/h (1 Bft) NO 36 0 min 0,000 mm 0,0 UV-I 0 W/m -1,7 C -1,1 C 3,2 km/h (1 Bft) 97,46 %
25.11.2015 21:40 -1,1 C 96 % 1008,5 hPa 0,0 l/m 1,5 km/h (1 Bft) O-SO 105 0 min 0,000 mm 0,0 UV-I 0 W/m -1,7 C -1,1 C 3,2 km/h (1 Bft) 99,15 %
25.11.2015 21:45 -1,1 C 96 % 1008,4 hPa 0,0 l/m 0,2 km/h (0 Bft) O-SO 105 0 min 0,000 mm 0,0 UV-I 0 W/m -1,7 C -1,1 C 1,6 km/h (1 Bft) 98,31 %
25.11.2015 21:50 -1,1 C 95 % 1008,4 hPa 0,0 l/m 0,1 km/h (0 Bft) O-SO 105 0 min 0,000 mm 0,0 UV-I 0 W/m -1,8 C -1,1 C 1,6 km/h (1 Bft) 99,15 %
25.11.2015 21:55 -1,1 C 96 % 1008,4 hPa 0,0 l/m 0,4 km/h (0 Bft) O-SO 104 0 min 0,000 mm 0,0 UV-I 0 W/m -1,7 C -1,1 C 1,6 km/h (1 Bft) 99,15 %
25.11.2015 22:00 -1,1 C 96 % 1008,3 hPa 0,0 l/m 1,0 km/h (0 Bft) O-SO 104 0 min 0,000 mm 0,0 UV-I 0 W/m -1,7 C -1,1 C 1,6 km/h (1 Bft) 97,52 %
25.11.2015 22:05 -1,1 C 96 % 1008,3 hPa 0,0 l/m 1,2 km/h (1 Bft) O-SO 104 0 min 0,000 mm 0,0 UV-I 0 W/m -1,7 C -1,1 C 3,2 km/h (1 Bft) 98,17 %
25.11.2015 22:10 -1,1 C 96 % 1008,3 hPa 0,0 l/m 0,6 km/h (0 Bft) O-SO 104 0 min 0,000 mm 0,0 UV-I 0 W/m -1,7 C -1,1 C 3,2 km/h (1 Bft) 96,58 %
25.11.2015 22:15 -1,1 C 96 % 1008,3 hPa 0,0 l/m 0,0 km/h (0 Bft) O-SO 104 0 min 0,000 mm 0,0 UV-I 0 W/m -1,7 C -1,1 C 1,6 km/h (1 Bft) 96,69 %
25.11.2015 22:20 -1,1 C 96 % 1008,3 hPa 0,0 l/m 0,0 km/h (0 Bft) O-SO 104 0 min 0,000 mm 0,0 UV-I 0 W/m -1,7 C -1,1 C 1,6 km/h (1 Bft) 97,44 %
25.11.2015 22:25 -1,1 C 96 % 1008,3 hPa 0,0 l/m 0,2 km/h (0 Bft) O-SO 104 0 min 0,000 mm 0,0 UV-I 0 W/m -1,7 C -1,1 C 1,6 km/h (1 Bft) 95,76 %
25.11.2015 22:30 -1,1 C 96 % 1008,3 hPa 0,0 l/m 0,0 km/h (0 Bft) O-SO 104 0 min 0,000 mm 0,0 UV-I 0 W/m -1,7 C -1,1 C 0,0 km/h (0 Bft) 95,41 %
25.11.2015 22:35 -1,1 C 96 % 1008,2 hPa 0,0 l/m 0,0 km/h (0 Bft) O-SO 104 0 min 0,000 mm 0,0 UV-I 0 W/m -1,7 C -1,1 C 1,6 km/h (1 Bft) 97,50 %
25.11.2015 22:40 -1,1 C 96 % 1008,3 hPa 0,0 l/m 0,0 km/h (0 Bft) O-SO 104 0 min 0,000 mm 0,0 UV-I 0 W/m -1,7 C -1,1 C 0,0 km/h (0 Bft) 97,46 %
25.11.2015 22:45 -1,1 C 96 % 1008,3 hPa 0,0 l/m 0,0 km/h (0 Bft) O-SO 104 0 min 0,000 mm 0,0 UV-I 0 W/m -1,7 C -1,1 C 1,6 km/h (1 Bft) 97,44 %
25.11.2015 22:50 -1,1 C 96 % 1008,2 hPa 0,0 l/m 0,2 km/h (0 Bft) O-SO 104 0 min 0,000 mm 0,0 UV-I 0 W/m -1,7 C -1,1 C 1,6 km/h (1 Bft) 98,31 %
25.11.2015 22:55 -1,1 C 96 % 1008,2 hPa 0,0 l/m 0,1 km/h (0 Bft) O-SO 104 0 min 0,000 mm 0,0 UV-I 0 W/m -1,7 C -1,1 C 1,6 km/h (1 Bft) 98,31 %
25.11.2015 23:00 -1,1 C 96 % 1008,2 hPa 0,0 l/m 0,4 km/h (0 Bft) O-SO 104 0 min 0,000 mm 0,0 UV-I 0 W/m -1,7 C -1,1 C 1,6 km/h (1 Bft) 98,33 %
25.11.2015 23:05 -1,1 C 96 % 1008,2 hPa 0,0 l/m 0,8 km/h (0 Bft) O-SO 104 0 min 0,000 mm 0,0 UV-I 0 W/m -1,7 C -1,1 C 1,6 km/h (1 Bft) 100,00 %
25.11.2015 23:10 -1,1 C 96 % 1008,2 hPa 0,0 l/m 1,3 km/h (1 Bft) O-SO 104 0 min 0,000 mm 0,0 UV-I 0 W/m -1,7 C -1,1 C 3,2 km/h (1 Bft) 96,58 %
25.11.2015 23:15 -1,0 C 96 % 1008,2 hPa 0,0 l/m 0,2 km/h (0 Bft) O-SO 104 0 min 0,000 mm 0,0 UV-I 0 W/m -1,6 C -1,0 C 1,6 km/h (1 Bft) 97,52 %
25.11.2015 23:20 -1,1 C 96 % 1008,2 hPa 0,0 l/m 0,4 km/h (0 Bft) O-SO 104 0 min 0,000 mm 0,0 UV-I 0 W/m -1,7 C -1,1 C 1,6 km/h (1 Bft) 100,00 %
25.11.2015 23:25 -1,1 C 96 % 1008,2 hPa 0,0 l/m 0,0 km/h (0 Bft) O-SO 104 0 min 0,000 mm 0,0 UV-I 0 W/m -1,7 C -1,1 C 0,0 km/h (0 Bft) 97,44 %
25.11.2015 23:30 -1,1 C 96 % 1008,2 hPa 0,0 l/m 0,0 km/h (0 Bft) O-SO 104 0 min 0,000 mm 0,0 UV-I 0 W/m -1,7 C -1,1 C 0,0 km/h (0 Bft) 100,00 %
25.11.2015 23:35 -1,0 C 96 % 1008,2 hPa 0,0 l/m 0,0 km/h (0 Bft) O-SO 104 0 min 0,000 mm 0,0 UV-I 0 W/m -1,6 C -1,0 C 1,6 km/h (1 Bft) 99,17 %
25.11.2015 23:40 -1,0 C 96 % 1008,2 hPa 0,0 l/m 0,0 km/h (0 Bft) O-SO 104 0 min 0,000 mm 0,0 UV-I 0 W/m -1,6 C -1,0 C 1,6 km/h (1 Bft) 98,29 %
25.11.2015 23:45 -1,0 C 97 % 1008,2 hPa 0,0 l/m 0,3 km/h (0 Bft) O-SO 104 0 min 0,000 mm 0,0 UV-I 0 W/m -1,4 C -1,0 C 1,6 km/h (1 Bft) 97,46 %
25.11.2015 23:50 -1,0 C 96 % 1008,2 hPa 0,0 l/m 1,2 km/h (1 Bft) O-SO 104 0 min 0,000 mm 0,0 UV-I 0 W/m -1,6 C -1,0 C 1,6 km/h (1 Bft) 97,46 %
25.11.2015 23:55 -1,0 C 96 % 1008,2 hPa 0,0 l/m 0,6 km/h (0 Bft) O-SO 104 0 min 0,000 mm 0,0 UV-I 0 W/m -1,6 C -1,0 C 1,6 km/h (1 Bft) 98,29 %
_ Min-Zeit 04:15 13:10 22:35 - 00:45 - - - - - - 05:15 04:15 00:50 08:00
Minimum _ -5,3 C 83 % 1008,2 hPa - 0,0 km/h (0 Bft) - - - - - - -6,1 C -5,3 C 0,0 km/h (0 Bft) 93,39 %
_ Max-Zeit 13:20 23:45 00:00 00:00 06:20 - - 00:00 12:00 11:20 12:20 23:45 13:20 05:55 00:05
Maximum _ 0,2 C 97 % 1017,2 hPa 0,0 l/m 6,4 km/h
O-SO (2 Bft)
- - 0 min 0,051 mm 0,6 UV-I 178 W/m -1,4 C 0,2 C 9,7 km/h
O-SO (2 Bft)
100,00 %
Durchschnitt _ -2,2 C 92 % 1011,1 hPa #0,0 l/m 1,5 km/h (1 Bft) NO - #0 min. #0,203 mm 0,5 UV-I 73 W/m -3,2 C -2,2 C 3,4 km/h (1 Bft) 98,21 %